Regional Weather Roundup
Issued by NWS Sterling, VA

Home | Current Version | Previous Version | Text Only | Print | Product List | Glossary On
Versions: 1 2 3 4 5 6 7 8 9 10 11 12 13 14 15 16 17 18 19 20 21 22 23 24 25 26 27 28 29 30 31 32 33 34 35 36 37 38 39 40 41 42 43 44 45 46 47 48 49 50
000
ASUS41 KLWX 250010
RWRLWX

REGIONAL WEATHER ROUNDUP
NATIONAL WEATHER SERVICE BALTIMORE MD/WASHINGTON DC
700 PM EST FRI FEB 24 2017

Note: "FAIR" indicates few or no clouds below 12,000 feet
with no significant weather and/or obstructions to visibility.
 TC=TEMPERATURE CELSIUS

 * =Non NWS site. Station does not report precipitation (e.g. rain,
    snow, etc.), thunder, or fog.

DCZ001-MDZ009-015-VAZ040>042-051-053>054-250100-
WASHINGTON METRO

CITY           SKY/WX    TMP DP  RH WIND       PRES   REMARKS
WASHINGTON NAT PTCLDY    68  56  65 SE15      29.81S
DULLES         PTCLDY    69  50  50 S10       29.79S
ANDREWS AFB    CLEAR     65  55  70 SE13      29.81S
FT BELVOIR     CLEAR     66  54  65 SE9       29.80S
QUANTICO       CLEAR     63  54  72 CALM      29.82R
COLLEGE PARK*  CLEAR     66  54  63 SE7       29.81S
LEESBURG*      CLEAR     70  54  56 MISG      29.80R
MANASSAS*        N/A     65  52  62 S8        29.80R
GAITHERSBURG*  CLEAR     66  48  52 SE10      29.83F

$$

MDZ006>007-011-014-250100-
BALTIMORE METRO

CITY           SKY/WX    TMP DP  RH WIND       PRES   REMARKS
BWI AIRPORT    PTCLDY    65  57  75 SE13      29.81S
MD SCIENCE CTR   N/A     66  54  65 MISG      29.82S
MARTIN STATE   CLEAR     63  57  82 SE15      29.84S
ANNAPOLIS      CLEAR     60  55  83 S15       29.83R
FORT MEADE*    CLEAR     63  55  77 SE13      29.84S

$$

MDZ012-015-019>023-250100-
MARYLAND EASTERN SHORE

CITY           SKY/WX    TMP DP  RH WIND       PRES   REMARKS
OCEAN CITY     MOCLDY    53  52  96 VRB5      29.89F
SALISBURY      CLEAR     62  60  93 SE7       29.87F
BAY BRIDGE AP* CLEAR     63  57  82 S13       29.83S
CAMBRIDGE*     PTCLDY    64  59  82 SE13      29.85S
EASTON*        CLEAR     66  57  72 S9        29.88S

$$

MDZ017>025-250100-
SOUTHERN MARYLAND

CITY           SKY/WX    TMP DP  RH WIND       PRES   REMARKS
PATUXENT RIVER PTCLDY    61  59  93 SE12      29.84F
ST INIGOES     CLEAR     63  59  87 SE9       29.84S
LEONARDTOWN*   CLEAR     63  57  82 SE10      29.86S

$$

MDZ003>005-250100-
NORTH CENTRAL MARYLAND

CITY           SKY/WX    TMP DP  RH WIND       PRES   REMARKS
FREDERICK*     CLEAR     70  54  56 S8        29.80S
HAGERSTOWN APT CLEAR     69  51  52 SE10      29.76R
WESTMINSTER*   CLEAR     64  55  72 SE8       29.80S

$$

MDZ501>502-250100-
WESTERN MARYLAND

CITY           SKY/WX    TMP DP  RH WIND       PRES   REMARKS
OAKLAND*       PTCLDY    61  45  55 SE16      29.75S
CUMBERLAND*    PTCLDY    72  48  43 S10G20    29.74S

$$

VAZ025>031-250100-
SHENANDOAH VALLEY

CITY           SKY/WX    TMP DP  RH WIND       PRES   REMARKS
WINCHESTER*    CLEAR     66  48  52 S8        29.77R
FRONT ROYAL*   CLEAR     68  50  52 S7G20     29.76R
LURAY*         MOCLDY    68  52  56 S6        29.78S
NEW MARKET*    CLOUDY    66  49  53 S8        29.77R
STAUNTON*      CLOUDY    65  50  58 S8        29.81S
WAYNESBORO*    CLEAR     64  49  57 SE7       29.81F

$$

WVZ021-048>050-054>055-250100-
EASTERN WEST VIRGINIA PANHANDLE

CITY           SKY/WX    TMP DP  RH WIND       PRES   REMARKS
MARTINSBURG    CLEAR     69  49  48 S9        29.75R
PETERSBURG*    PTCLDY    71  50  48 S7        29.74S

$$

VAZ036>039-050-250100-
CENTRAL FOOTHILLS

CITY           SKY/WX    TMP DP  RH WIND       PRES   REMARKS
CHARLOTTESVILL CLEAR     69  51  52 S9        29.79S
CULPEPER*      CLEAR     69  52  55 S3        29.81R
ORANGE*        CLEAR     66  50  55 CALM      29.81S
GORDONSVILLE*  CLEAR     66  52  60 S5        29.80R
WARRENTON*     CLEAR     69  47  45 S5        29.79S

$$

VAZ055>057-250100-
NORTH AND CENTRAL PIEDMONT

CITY           SKY/WX    TMP DP  RH WIND       PRES   REMARKS
FREDERICKSBRG* CLEAR     68  54  62 S6        29.80S
STAFFORD*      CLEAR     67  52  59 S5        29.84S

$$

NCZ024-NYZ072-PAZ021-071-VAZ022-071-250100-
OTHER REGIONAL OBSERVATIONS

CITY           SKY/WX    TMP DP  RH WIND       PRES   REMARKS
NEW YORK CITY  PTCLDY    63  52  67 S6        29.88S
PHILADELPHIA   PTCLDY    64  55  72 SE8       29.85S
PITTSBURGH     MOCLDY    72  47  40 S3        29.62R
ROANOKE        PTCLDY    68  50  52 S6        29.82R
RICHMOND       PTCLDY    66  56  70 SE9       29.82S
RALEIGH        PTCLDY    70  53  54 S3        29.83S

$$

ANZ530>537-250100-
MARINE OBSERVATIONS

STATION/POSITION TIME  TEMP    WIND        PRES
                       AIR SEA DIR/SP/G
                 (UTC) (F)     (DEG/KT/KT) (MB)
THOMAS PT LIGHT  0000   52 45  190/ 13/ 13   N/A
BALT KEY BRIDGE  2348   63     160/ 14/ 15 1009.6S
COVE POINT       2348   52     190/ 14/ 16 1011.2F
LEWISETTA        2348   63 51  170/ 12/ 14 1010.4F
SOLOMONS ISLAND  2348          150/ 13/ 14   N/A
PINEY POINT      2348          160/ 14/ 14   N/A

$$




USA.gov is the U.S. government's official web portal to all federal, state and local government web resources and services.